Flag for Canada Weather past 2 weeks in Nanaimo, British Columbia, Canada

Now
50 °F

Cool.


Feels Like: 44 °F
Forecast: 46 / 53 °F
Wind: 17 mph from Southeast

Location: Entrance Island


UV Index: 0 (Low)

Visibility: N/A


Pressure: 29.98 "Hg

Humidity: 87%

Dew point: 46 °F

Location of NanaimoLocation

Historic Weather in Nanaimo

°F

Nanaimo temperature yesterday

Maximum temperature yesterday: 54 °F (at 3:00 PM)
Minimum temperature yesterday: 47 °F (at 11:00 PM)
Average temperature yesterday: 51 °F

Past Weeks' High & Low Weather Summary

 TemperatureHumidityPressure
High56 °F (Apr 14, 8:00 PM)97% (Apr 5, 6:00 PM)30.36 "Hg (Apr 5, 6:00 PM)
Low44 °F (Apr 6, 12:00 AM)39% (Apr 13, 9:00 PM)29.80 "Hg (Apr 3, 7:00 PM)
Average49 °F75%30.08 "Hg
* Reported Apr 1 11:00 AM — Apr 16 11:00 AM, Nanaimo, Weather by CustomWeather, © 2014

Note: Actual official high and low records may vary slightly from our data, if they occured in-between our weather recording intervals... More about our weather records

Advertising

Historic Weather Conditions — Data for Previous 24 hours

 ConditionsComfort  
Time TempWeatherWind HumidityBarometerVisibility
11:00 AM
Apr 16
49 °FCool.15 mph87%29.98 "HgN/A
10:00 AM49 °FCool.10 mph88%29.99 "HgN/A
9:00 AM48 °FCool.12 mph90%29.99 "HgN/A
8:00 AM48 °FCool.17 mph90%29.99 "HgN/A
7:00 AM47 °FCool.20 mph90%29.99 "HgN/A
6:00 AM47 °FCool.20 mph89%29.99 "HgN/A
5:00 AM47 °FCool.21 mph82%29.99 "HgN/A
4:00 AM47 °FCool.18 mph81%30.00 "HgN/A
3:00 AM48 °FCool.20 mph87%30.01 "HgN/A
2:00 AM48 °FCool.16 mph89%30.02 "HgN/A
1:00 AM48 °FCool.15 mph89%30.03 "HgN/A
12:00 AM48 °FCool.10 mph88%30.04 "HgN/A
11:00 PM
Apr 15
47 °FCool.9 mph86%30.05 "HgN/A
10:00 PM48 °FCool.6 mph81%30.05 "HgN/A
9:00 PM49 °FCool.7 mph81%30.06 "HgN/A
8:00 PM50 °FCool.8 mph77%30.08 "HgN/A
7:00 PM53 °FCool.7 mph77%30.05 "HgN/A
6:00 PM53 °FCool.14 mph76%30.06 "HgN/A
5:00 PM52 °FCool.14 mph79%30.08 "HgN/A
4:00 PM51 °FCool.14 mph82%30.08 "HgN/A
3:00 PM54 °FCool.10 mph69%30.09 "HgN/A
2:00 PM52 °FCool.14 mph78%30.11 "HgN/A
1:00 PM51 °FCool.16 mph69%30.12 "HgN/A
12:00 PM51 °FCool.14 mph66%30.12 "HgN/A
Weather by CustomWeather, © 2014

See weather overview